Regional Weather Roundup
Issued by NWS State College, PA

Home | Current Version | Previous Version | Text Only | Print | Product List | Glossary On
Versions: 1 2 3 4 5 6 7 8 9 10 11 12 13 14 15 16 17 18 19 20 21 22 23 24 25 26 27 28 29 30 31 32 33 34 35 36 37 38 39 40 41 42 43 44 45 46 47 48 49 50
052
ASUS41 KCTP 270410
RWRCTP

REGIONAL WEATHER ROUNDUP
NATIONAL WEATHER SERVICE STATE COLLEGE PA
1200 AM EDT SAT AUG 27 2016

Note: "fair" indicates few or no clouds below 12,000 feet with no
significant weather and/or obstructions to visibility.

* = STATION THAT DOES NOT REPORT PRECIPITATION /E.G. RAIN...SNOW...ETC/
    THUNDER OR FOG.

PAZ002>004-007>009-013>016-020>023-029>032-270500-
WESTERN PENNSYLVANIA

CITY           SKY/WX    TMP DP  RH WIND       PRES   REMARKS
ERIE           CLOUDY    66  61  84 S3        30.18R
MEADVILLE      CLEAR     63  57  81 CALM      30.21R
FRANKLIN*        N/A     64  59  82 CALM      30.22S
NEW CASTLE     FAIR      64  62  93 CALM      30.20R
BEAVER COUNTY  NOT AVBL
BUTLER*        NOT AVBL
PITTSBURGH INT CLEAR     74  60  61 CALM      30.18R
PITTSBURGH     CLEAR     76  59  55 CALM      30.18R
INDIANA*       CLEAR     66  64  94 CALM      30.22S
LATROBE        CLEAR     66  66 100 CALM      30.19S
WASHINGTON CO* CLEAR     66  64  94 CALM      30.19S
$$

PAZ004>006-010>012-017>019-024>028-033>037-041-042-045-046-049>053-270500-
CENTRAL PENNSYLVANIA

CITY           SKY/WX    TMP DP  RH WIND       PRES   REMARKS
BRADFORD         N/A     59  59 100 CALM      30.23S
DUBOIS         CLEAR     66  60  81 CALM      30.22R
CLEARFIELD     CLEAR     67  65  93 CALM      30.21R
JOHNSTOWN      CLEAR     71  60  68 NW6       30.23S
ALTOONA        CLEAR     65  63  93 CALM      30.20R
STATE COLLEGE  CLEAR     70  63  79 CALM      30.18R
WILLIAMSPORT   CLEAR     70  65  84 CALM      30.14R
SELINSGROVE    CLEAR     67  67 100 CALM      30.14R
FT INDIANTOWN  CLEAR     68  65  93 CALM      30.12R
CAPITAL CITY   CLEAR     73  66  78 SW6       30.11R
HARRISBURG     CLEAR     74  71  91 N5        30.10R
YORK           CLEAR     67  65  93 CALM      30.12R
$$

PAZ038>040-043-044-047-048-054-055-060>062-067>071-270500-
EASTERN PENNSYLVANIA

CITY           SKY/WX    TMP DP  RH WIND       PRES   REMARKS
SCRANTON       CLEAR     69  63  81 E6        30.14S
MOUNT POCONO     N/A     63  58  83 NW3       30.18R
ALLENTOWN      CLEAR     69  63  81 NW3       30.11R
QUAKERTOWN*    CLEAR     68  63  83 CALM      30.12R
READING        CLEAR     72  65  78 CALM      30.10R
LANCASTER      CLEAR     72  67  84 SE5       30.11R
COATESVILLE    CLEAR     77  63  61 CALM      30.13S
POTTSTOWN      CLEAR     71  65  81 CALM      30.11S
BLUE BELL      CLEAR     64  64 100 CALM      30.09R
DOYLESTOWN     CLEAR     77  64  64 N5        30.09R
WILLOW GROVE   NOT AVBL
NORTH PHILA    CLEAR     77  65  66 N3        30.10R
PHILADELPHIA   CLEAR     81  65  58 N6        30.09R
$$




USA.gov is the U.S. government's official web portal to all federal, state and local government web resources and services.